Regional Weather Roundup
Issued by NWS Newport/Morehead, NC

Current Version | Previous Version | Graphics & Text | Print | Product List | Glossary On
Versions: 1 2 3 4 5 6 7 8 9 10 11 12 13 14 15 16 17 18 19 20 21 22 23 24 25 26 27 28 29 30 31 32 33 34 35 36 37 38 39 40 41 42 43 44 45 46 47 48 49 50
000 ASUS42 KMHX 220010 RWRMHX WEATHER ROUNDUP FOR EASTERN NORTH CAROLINA NATIONAL WEATHER SERVICE NEWPORT/MOREHEAD CITY NC 700 PM EST SUN DEC 21 2014 NOTE: "FAIR" INDICATES FEW OR NO CLOUDS BELOW 12,000 FEET WITH NO SIGNIFICANT WEATHER AND/OR OBSTRUCTIONS TO VISIBILITY NCZ015>017-031-032-045>047-102-103-220100- NORTH COAST CITY SKY/WX TMP DP RH WIND PRES REMARKS EDENTON N/A 39 33 80 E5 30.29F ELIZABETH CITY CLEAR 42 33 70 N7 30.31R KITTY HAWK CLEAR 44 38 79 NE5 30.28R MANTEO CLEAR 43 37 79 NE9 30.29R $$ NCZ045>047-081-094-103-104-220100- CENTRAL COAST CITY SKY/WX TMP DP RH WIND PRES REMARKS FRISCO CLOUDY 47 43 86 N8 30.26R SWANQUARTER N/A 43 N/A N/A NE8G16 30.21F $$ NCZ095-097-098-100-101-220100- SOUTHERN COAST CITY SKY/WX TMP DP RH WIND PRES REMARKS BEAUFORT CLOUDY 46 40 79 NE13G20 30.22F CEDAR ISLAND N/A 46 N/A N/A N17G24 30.27F JACKSONVILLE CLOUDY 46 37 71 N9 30.23R PINEY ISLAND MOCLDY 48 39 71 NE14 30.23F WILMINGTON CLOUDY 47 38 71 NE8 30.22R $$ NCZ011>013-027>030-043-044-078>080-089-090>093-098-220100- COASTAL PLAIN CITY SKY/WX TMP DP RH WIND PRES REMARKS AHOSKIE CLEAR 39 32 76 CALM 30.30R CLINTON CLOUDY 46 37 71 E5 30.23F ELIZABETHTOWN CLOUDY 47 37 69 NE3 30.21F GOLDSBORO CLOUDY 46 42 86 NE6 30.23F GREENVILLE CLOUDY 45 34 65 E8 30.27F HAVELOCK CLOUDY 46 39 76 NE10 30.24S KENANSVILLE CLOUDY 45 35 69 CALM 30.25F KINSTON NOT AVBL NEW BERN MOCLDY 46 37 71 NE9 30.26R RICHLANDS CLOUDY 45 34 65 NE12 30.24S ROCKY MOUNT CLOUDY 45 33 63 NE6 30.27S WASHINGTON CLOUDY 43 34 72 NE6 30.27S WHITEVILLE DRIZZLE 48 38 70 NE6 30.20R $$ AMZ130-135-150-152-154-156-158-170-250-252-270-ANZ085-086-088-633-658-670-220100- MARINE OBSERVATIONS STATION/POSITION TIME TEMP WIND PRES WAVE SWELL AIR SEA DIR/SP/G HT/PER HT/PER (UTC) (F) (DEG/KT/KT) (MB) (FT/S) (FT/S) CHESAPEAKE LIGHT 2300 41 40/ 11/ 13 1026.5 64 E VA BEACH 0000 47 54 40/ 14/ 17 1025.2 2/ 4 2/11 DUCK 0000 45 46 40/ 13/ 15 1025.2 2 E DUCK 0000 46 N/A 3/ 4 10 NE DUCK 0000 51 N/A 3/ 4 OREGON INLET 0000 46 48 20/ 10/ 15 1025.1 13E OREGON INLT 0000 53 N/A 4/ 4 HATTERAS CG 0000 47 49 20/ 14/ 16 1024.7 DIAMOND BUOY 0000 55 1023.4 4/ 5 17 S OCRACOKE NOT AVBL CAPE LOOKOUT 2300 47 20/ 16/ 20 1023.7 BEAUFORT LAB 0000 46 51 40/ 8/ 13 1022.5 30 SE NEW RIVER 2300 52 60 40/ 23/ 29 1021.8 5 SE WRIGHTSVLE NOT AVBL 225 S CAPE HAT NOT AVBL 41 SE CHARLESTON 0000 65 69 40/ 17/ 21 1018.7 7/ 7 $$

USA.gov is the U.S. government's official web portal to all federal, state and local government web resources and services.